This is the latest recevied weather packets stored in our database for station/object SA3PJN-WX. If no packets are shown the sender has not sent any weather packets the latest 10 day(s).
| Time | Temp. | Humidity | Pressure | Rain* | Wind** | Luminosity | Snow |
|---|---|---|---|---|---|---|---|
| 1778179392 | 7.22° C | 41% | 974.2 hPa | - | - | - | - |
| 1778179092 | 7.22° C | 43% | 974 hPa | - | - | - | - |
| 1778178792 | 6.67° C | 45% | 974 hPa | - | - | - | - |
| 1778178492 | 6.67° C | 44% | 974 hPa | - | - | - | - |
| 1778178192 | 7.22° C | 43% | 974 hPa | - | - | - | - |
| 1778177892 | 7.22° C | 43% | 974 hPa | - | - | - | - |
| 1778177592 | 7.22° C | 43% | 973.6 hPa | - | - | - | - |
| 1778177292 | 7.78° C | 40% | 974 hPa | - | - | - | - |
| 1778176992 | 7.78° C | 38% | 973.6 hPa | - | - | - | - |
| 1778176692 | 7.78° C | 38% | 973.5 hPa | - | - | - | - |
| 1778176362 | 7.78° C | 37% | 973.5 hPa | - | - | - | - |
| 1778176062 | 7.78° C | 38% | 973.4 hPa | - | - | - | - |
| 1778175762 | 7.78° C | 37% | 973.4 hPa | - | - | - | - |
| 1778175432 | 8.33° C | 40% | 973.4 hPa | - | - | - | - |
| 1778175132 | 8.33° C | 39% | 973.4 hPa | - | - | - | - |
| 1778174832 | 8.33° C | 39% | 973.3 hPa | - | - | - | - |
| 1778174532 | 8.33° C | 37% | 973.2 hPa | - | - | - | - |
| 1778174232 | 7.78° C | 38% | 973.2 hPa | - | - | - | - |
| 1778173932 | 7.78° C | 38% | 973.2 hPa | - | - | - | - |
| 1778173632 | 7.78° C | 39% | 973 hPa | - | - | - | - |
| 1778173332 | 7.78° C | 41% | 973 hPa | - | - | - | - |
| 1778173032 | 7.78° C | 38% | 973 hPa | - | - | - | - |
| 1778172732 | 8.33° C | 41% | 973 hPa | - | - | - | - |
| 1778172432 | 7.78° C | 39% | 973 hPa | - | - | - | - |
| 1778172131 | 8.33° C | 40% | 973 hPa | - | - | - | - |
* Rain since midnight (hover to see other rain measurements)
** Current wind speed in m/s (hover to see current wind gust speed)